Location: Recife
(8.0585°S, 34.8848°W)
Time: 13:19:21
(UTC-03:00)

Transit 4A - Pass Details

Date: 14 April 2026
Orbit: 861 x 980 km, 66.8° (Epoch: 12 May)

Event Time Altitude Azimuth Distance (km) Brightness Sun altitude
Rises 11:31:22 0° 176° (S) 3,443 10.7 72.2°
Reaches altitude 10° 11:34:28 10° 160° (SSE) 2,506 10.1 72.0°
Maximum altitude 11:38:42 21° 112° (ESE) 1,855 9.7 71.8°
Drops below altitude 10° 11:42:58 10° 65° (ENE) 2,525 10.4 71.5°
Sets 11:46:05 0° 49° (NE) 3,477 11.0 71.2°
